Weather History for Corsicana, TX

Change the Weather History Date:

Sunday, August 18, 2013

  Actual Average (KACT) Record (KACT)
Temperature  
Mean Temperature 78 °F 86 °F  
Max Temperature 93 °F 97 °F 109 °F (1909)
Min Temperature 66 °F 74 °F 61 °F (1992)
Degree Days  
Heating Degree Days 0 0  
Month to date heating degree days 0  
Since 1 June heating degree days 0  
Since 1 July heating degree days 0  
Cooling Degree Days 14 20  
Month to date cooling degree days 377  
Year to date cooling degree days 1943  
Since 1 June cooling degree days 1491  
Growing Degree Days 28 (Base 50)    
Moisture  
Dew Point 59 °F    
Average Humidity 51    
Maximum Humidity 78    
Minimum Humidity 29    
Precipitation  
Precipitation 0.00 in 0.07 in 3.48 in (2008)
Month to date precipitation 1.08  
Year to date precipitation 21.19  
Sea Level Pressure  
Sea Level Pressure 30.03 in    
Wind  
Wind Speed 5 mph (ENE)    
Max Wind Speed 13 mph    
Max Gust Speed 18 mph    
Visibility 10 miles    
Events      
T = Trace of Precipitation, MM = Missing Value Source: NWS Daily Summary

Daily Weather History Graph

Daily Weather History Graph

Search for Another Location

Airport:

Trip Planner

Search our weather history database for the weather conditions in past years. The results will help you decide how hot, cold, wet, or windy it might be!

Date:

Astronomy

Aug. 18, 2013 Rise Set
Actual Time 6:52 AM CDT 8:05 PM CDT
Civil Twilight 6:26 AM CDT 8:31 PM CDT
Nautical Twilight 5:56 AM CDT 9:01 PM CDT
Astronomical Twilight 5:24 AM CDT 9:33 PM CDT
Moon 6:09 PM CDT (8/18) 4:07 AM CDT (8/18)
Length of Visible Light 14h 04m
Length of Day
13h 13m
Waxing Gibbous, 92% of the Moon is Illuminated
Aug 18
Waxing Gibbous
Aug 20
Full
Aug 28
Last Quarter
Sep 5
New
Sep 12
First Quarter

Hourly Weather History & Observations

Time (CDT) Temp. Heat Index Dew Point Humidity Pressure Visibility Wind Dir Wind Speed Gust Speed Precip Events Conditions
12:53 AM 73.9 °F - 59.0 °F 59% 30.03 in 10.0 mi East 5.8 mph - N/A   Clear
1:53 AM 73.0 °F - 59.0 °F 61% 30.03 in 10.0 mi East 3.5 mph - N/A   Clear
2:53 AM 71.1 °F - 59.0 °F 66% 30.02 in 10.0 mi ENE 3.5 mph - N/A   Clear
3:53 AM 70.0 °F - 60.1 °F 71% 30.01 in 10.0 mi ENE 3.5 mph - N/A   Clear
4:53 AM 69.1 °F - 60.1 °F 73% 30.02 in 10.0 mi Calm Calm - N/A   Clear
5:53 AM 66.0 °F - 59.0 °F 78% 30.03 in 10.0 mi NE 3.5 mph - N/A   Clear
6:53 AM 66.0 °F - 59.0 °F 78% 30.04 in 9.0 mi NE 4.6 mph - N/A   Clear
7:53 AM 69.1 °F - 62.1 °F 78% 30.06 in 8.0 mi Calm Calm - N/A   Clear
8:53 AM 75.9 °F - 66.0 °F 71% 30.07 in 8.0 mi East 10.4 mph - N/A   Clear
9:53 AM 81.0 °F 83.0 °F 66.0 °F 60% 30.09 in 10.0 mi East 6.9 mph - N/A   Clear
10:53 AM 84.0 °F 84.5 °F 62.1 °F 47% 30.09 in 10.0 mi East 9.2 mph - N/A   Clear
11:53 AM 86.0 °F 86.3 °F 62.1 °F 44% 30.08 in 10.0 mi Variable 5.8 mph - N/A   Partly Cloudy
12:53 PM 88.0 °F 87.1 °F 59.0 °F 37% 30.06 in 10.0 mi ENE 11.5 mph 18.4 mph N/A   Partly Cloudy
1:53 PM 90.0 °F 89.1 °F 59.0 °F 35% 30.05 in 10.0 mi ENE 11.5 mph 18.4 mph N/A   Partly Cloudy
2:53 PM 90.0 °F 88.8 °F 57.9 °F 34% 30.03 in 10.0 mi East 9.2 mph 16.1 mph N/A   Partly Cloudy
3:53 PM 91.9 °F 90.3 °F 55.9 °F 30% 30.02 in 10.0 mi ENE 12.7 mph 16.1 mph N/A   Clear
4:53 PM 91.9 °F 90.0 °F 55.0 °F 29% 30.01 in 10.0 mi NE 10.4 mph 16.1 mph N/A   Clear
5:53 PM 91.0 °F 89.2 °F 55.9 °F 30% 29.99 in 10.0 mi Variable 5.8 mph - N/A   Partly Cloudy
6:53 PM 91.0 °F 88.9 °F 55.0 °F 29% 29.99 in 10.0 mi ESE 6.9 mph - N/A   Clear
7:53 PM 87.1 °F 85.3 °F 55.0 °F 33% 29.98 in 10.0 mi Calm Calm - N/A   Clear
8:53 PM 82.0 °F 81.6 °F 55.9 °F 41% 29.99 in 10.0 mi Calm Calm - N/A   Clear
9:53 PM 81.0 °F 81.0 °F 57.0 °F 44% 30.00 in 10.0 mi ENE 3.5 mph - N/A   Clear
10:53 PM 77.0 °F - 61.0 °F 58% 30.01 in 10.0 mi NE 4.6 mph - N/A   Clear
11:53 PM 78.1 °F - 57.0 °F 48% 30.01 in 10.0 mi NE 5.8 mph - N/A   Clear